Bar Harbor, ME

6:02 AM EST on December 13, 2019 (GMT -0500)
Hancock County-Bar Harbor

Weather History for KBHB - October, 2019

Change the Weather History Date:

Saturday, October 26, 2019

  Actual Average Record
Temperature  
Mean Temperature 45 °F -  
Max Temperature 55 °F 55 °F 67 °F (1963)
Min Temperature 34 °F 41 °F 26 °F (1956)
Degree Days  
Heating Degree Days 20    
Moisture  
Dew Point 39 °F    
Average Humidity 80    
Maximum Humidity 100    
Minimum Humidity 45    
Precipitation  
Precipitation 0.19 in - - ()
Sea Level Pressure  
Sea Level Pressure 30.21 in    
Wind  
Wind Speed 4 mph (NW)    
Max Wind Speed 10 mph    
Max Gust Speed 18 mph    
Visibility 10 miles    
Events Rain    
Averages and records for this station are not official NWS values.
T = Trace of Precipitation, MM = Missing Value Source: NWS Daily Summary

Daily Weather History Graph

Daily Weather History Graph

Search for Another Location

Airport or City:

Astronomy

Oct. 26, 2019 Rise Set
Actual Time 7:02 AM EDT 5:31 PM EDT
Civil Twilight 6:32 AM EDT 6:01 PM EDT
Nautical Twilight 5:58 AM EDT 6:35 PM EDT
Astronomical Twilight 5:24 AM EDT 7:09 PM EDT
Moon 4:45 AM EDT (10/26) 5:11 PM EDT (10/26)
Length of Visible Light 11h 29m
Length of Day
10h 29m
Waning Crescent, 3% of the Moon is Illuminated
Oct 26
Waning Crescent
Oct 27
New
Nov 4
First Quarter
Nov 12
Full
Nov 19
Last Quarter

Hourly Weather History & Observations

Time (EDT) Temp. Windchill Dew Point Humidity Pressure Visibility Wind Dir Wind Speed Gust Speed Precip Events Conditions
12:56 AM 46.9 °F - 46.0 °F 97% 30.17 in 10.0 mi SSW 4.6 mph - 0.03 in Rain Light Rain
1:56 AM 46.9 °F - 46.0 °F 97% 30.16 in 10.0 mi SSW 5.8 mph - 0.02 in Rain Light Rain
2:56 AM 46.9 °F - 46.0 °F 97% 30.16 in 10.0 mi SSW 4.6 mph - 0.04 in Rain Light Rain
3:49 AM 46.4 °F 45.2 °F 46.4 °F 100% 30.15 in 10.0 mi Variable 3.5 mph - 0.05 in Rain Light Rain
3:56 AM 46.9 °F - 46.0 °F 97% 30.16 in 10.0 mi West 3.5 mph - 0.06 in Rain Light Rain
4:14 AM 46.4 °F - 44.6 °F 93% 30.15 in 10.0 mi Calm Calm - 0.02 in Rain Light Rain
4:56 AM 46.0 °F - 45.0 °F 96% 30.16 in 10.0 mi Calm Calm - 0.03 in Rain Light Rain
5:56 AM 46.0 °F - 45.0 °F 96% 30.15 in 10.0 mi Calm Calm - 0.01 in Rain Light Rain
6:56 AM 46.0 °F 43.9 °F 45.0 °F 96% 30.16 in 10.0 mi WNW 4.6 mph - 0.00 in Rain Light Rain
7:13 AM 44.6 °F 42.2 °F 44.6 °F 100% 30.16 in 10.0 mi NNW 4.6 mph - 0.00 in Rain Light Rain
7:28 AM 44.6 °F 43.1 °F 44.6 °F 100% 30.16 in 10.0 mi North 3.5 mph - 0.00 in   Overcast
7:56 AM 43.0 °F 39.5 °F 39.9 °F 89% 30.18 in 10.0 mi NE 5.8 mph - 0.00 in   Overcast
8:25 AM 42.8 °F 38.6 °F 39.2 °F 87% 30.19 in 10.0 mi North 6.9 mph - N/A   Scattered Clouds
8:56 AM 44.1 °F 41.5 °F 39.9 °F 85% 30.21 in 10.0 mi NNE 4.6 mph - N/A   Scattered Clouds
9:56 AM 46.0 °F 44.8 °F 39.9 °F 79% 30.22 in 10.0 mi NNE 3.5 mph - N/A   Clear
10:56 AM 50.0 °F - 42.1 °F 74% 30.21 in 10.0 mi Variable 4.6 mph - N/A   Partly Cloudy
11:56 AM 52.0 °F - 37.0 °F 57% 30.20 in 10.0 mi NNW 8.1 mph - N/A   Partly Cloudy
12:56 PM 53.1 °F - 35.1 °F 50% 30.19 in 10.0 mi NNW 6.9 mph - N/A   Clear
1:56 PM 52.0 °F - 35.1 °F 53% 30.19 in 10.0 mi Variable 5.8 mph - N/A   Mostly Cloudy
2:56 PM 55.0 °F - 34.0 °F 45% 30.19 in 10.0 mi WNW 10.4 mph 18.4 mph N/A   Overcast
3:56 PM 54.0 °F - 35.1 °F 49% 30.20 in 10.0 mi West 8.1 mph - N/A   Mostly Cloudy
4:56 PM 52.0 °F - 34.0 °F 50% 30.22 in 10.0 mi NNW 5.8 mph - N/A   Clear
5:56 PM 46.9 °F - 34.0 °F 61% 30.26 in 10.0 mi WNW 3.5 mph - N/A   Clear
6:56 PM 45.0 °F 41.2 °F 33.1 °F 63% 30.28 in 10.0 mi North 6.9 mph - N/A   Clear
7:56 PM 43.0 °F - 33.1 °F 68% 30.30 in 10.0 mi Calm Calm - N/A   Clear
8:56 PM 37.9 °F 35.5 °F 34.0 °F 86% 30.30 in 10.0 mi NNW 3.5 mph - N/A   Clear
9:56 PM 37.9 °F - 33.1 °F 83% 30.31 in 10.0 mi Calm Calm - N/A   Clear
10:56 PM 35.1 °F - 32.0 °F 89% 30.32 in 10.0 mi Calm Calm - N/A   Clear
11:56 PM 34.0 °F - 30.9 °F 89% 30.34 in 10.0 mi Calm Calm - N/A   Clear